Regional Weather Roundup
Issued by NWS

Home | Current Version | Previous Version | Text Only | Print | Product List | Glossary On
Versions: 1 2 3 4 5 6 7 8 9 10 11 12 13 14 15 16 17 18 19 20 21 22 23 24 25 26 27 28 29 30 31 32 33 34 35 36 37 38 39 40 41 42 43 44 45 46 47 48 49 50
000
ASUS43 KMKX 130421
RWRWI

WISCONSIN REGIONAL WEATHER ROUNDUP
NATIONAL WEATHER SERVICE MILWAUKEE/SULLIVAN WI
1100 PM CDT SAT JUL 12 2014

NOTE: "FAIR" INDICATES FEW OR NO CLOUDS BELOW 12,000 FEET WITH NO
SIGNIFICANT WEATHER AND/OR OBSTRUCTIONS TO VISIBILITY.

WIZ001-002-006>008-014>016-023>028-130500-
NORTHWEST WISCONSIN

CITY           SKY/WX    TMP DP  RH WIND       PRES   REMARKS
SUPERIOR ARPT  CLEAR     64  60  88 SW7       29.84S
ASHLAND        PTCLDY    65  60  84 SW8       29.85F
HAYWARD        PTCLDY    66  62  87 SW6       29.89F
SIREN          CLEAR     65  62  90 SW6       29.90F
RICE LAKE      PTCLDY    65  63  93 SW5       29.93F
LADYSMITH      CLOUDY    66  64  95 SW6       29.93F
EAU CLAIRE     PTCLDY    65  64  97 W5        29.93R
MENOMONIE      PTCLDY    66  65  96 CALM      29.94S
NEW RICHMOND   CLEAR     66  65  99 SW5       29.94F
OSCEOLA        CLEAR     66  64  94 SW3       29.95F
$$

WIZ003>005-009-010-017-018-130500-
NORTH CENTRAL WISCONSIN

CITY           SKY/WX    TMP DP  RH WIND       PRES   REMARKS
WOODRUFF       MOCLDY    62  60  91 W3        29.89S
RHINELANDER    PTCLDY    61  60  97 W7        29.90S
EAGLE RIVER    CLOUDY    63  62  98 W7        29.88S
LAND O LAKES   CLOUDY    65  62  90 W3        29.88F
PHILLIPS       CLOUDY    63  62  96 SW8       29.90S
TOMAHAWK       MOCLDY    58  57  96 W3        29.91R FOG
MEDFORD        PTCLDY    60  60  97 NW7       29.92R
MERRILL        PTCLDY    60  60 100 W3        29.88F
$$

WIZ029-030-035-036-043>047-130500-
CENTRAL WISCONSIN

CITY           SKY/WX    TMP DP  RH WIND       PRES   REMARKS
WAUSAU         PTCLDY    63  61  93 CALM      29.87F
MOSINEE        PTCLDY    61  61 100 W5        29.90F
MARSHFIELD     CLEAR     61  60  97 W6        29.90F
STEVENS POINT  PTCLDY    63  62  96 W5        29.89F
WAUPACA        PTCLDY    67  65  91 W5        29.87F
WAUTOMA        PTCLDY    65  64  96 W6        29.89R
WISC RAPIDS    PTCLDY    63  62  97 W6        29.91F FOG
CAMP DOUGLAS   NOT AVBL
$$

WIZ011>013-019>022-031-037>040-048>050-130500-
NORTHEAST WISCONSIN

CITY           SKY/WX    TMP DP  RH WIND       PRES   REMARKS
ANTIGO         PTCLDY    59  59 100 W6        29.88F
STURGEON BAY   CLOUDY    64  61  88 NW5       29.84R
GREEN BAY      CLOUDY    66  63  90 W5        29.84F
MANITOWOC      LGT RAIN  67  64  90 S3        29.84F
APPLETON       MOCLDY    66  63  88 SW6       29.86F
CLINTONVILLE   MOCLDY    64  63  94 W3        29.86S
OSHKOSH        CLOUDY    67  65  93 W3        29.85F
$$

WIZ032>034-041-042-053>061-130500-
SOUTHWEST WISCONSIN

CITY           SKY/WX    TMP DP  RH WIND       PRES   REMARKS
LA CROSSE      CLEAR     64  62  93 CALM      29.93F FOG
SPARTA         MOCLDY    63  62  97 CALM      29.94F
VIROQUA        CLOUDY    64  64 100 NW8       29.95F
BOSCOBEL       PTCLDY    66  63  90 CALM      29.93R
PRAIRIE DU CHI PTCLDY    65  63  93 NW7       29.93F
PLATTEVILLE    FAIR      66  64  94 W6        29.93R
$$

WIZ056-057-062-063-064-067-068-130500-
SOUTH CENTRAL WISCONSIN

CITY           SKY/WX    TMP DP  RH WIND       PRES   REMARKS
BARABOO/DELLS  MOCLDY    64  62  94 NW3       29.92R FOG
LONE ROCK      CLOUDY    71  67  87 NW10      29.92R
WATERTOWN      CLOUDY    66  65  97 N7        29.87F
MADISON        CLOUDY    67  64  90 NE5       29.89S
MIDDLETON      CLOUDY    68  67  99 CALM      29.90S
MONROE         CLOUDY    68  68 100 N3        29.90F
JANESVILLE     LGT RAIN  68  66  94 W10       29.89R
$$

WIZ051-052-058>065-066-070>072-130500-
SOUTHEAST WISCONSIN

CITY           SKY/WX    TMP DP  RH WIND       PRES   REMARKS
MILWAUKEE      RAIN      71  68  90 W6        29.86R FOG
WAUKESHA       RAIN      66  64  94 W6        29.87F
MILWAUKEE/TIMM RAIN      68  64  88 N8        29.87S
RACINE         LGT RAIN  71  69  93 W7        29.87R FOG
BURLINGTON     HVY RAIN  68  66  96 NW10      29.88R
KENOSHA        HVY RAIN  71  70  96 W10       29.87R FOG
FOND DU LAC    LGT RAIN  67  65  93 S3        29.86F
SHEBOYGAN      CLOUDY    67  64  90 NW3       29.86F
WEST BEND      CLOUDY    64  61  88 N3        29.88F
JUNEAU         DRIZZLE   66  49  55 N6        29.90S
$$

LSZ147-162-130500-
LAKE SUPERIOR

STATION/POSITION TIME  TEMP    WIND        PRES    WAVE
                       AIR SEA DIR/SP/G            HT/PER
                 (UTC) (F)     (DEG/KT/KT) (MB)    (FT/S)
W MID LAKE BUOY  0350   46 38  210/ 10/ 12 1009.0F   0
PORT WING        0300   67     190/  6/  8 1010.5
SAXON HARBOR     0340          190/  2/  6 1010.5F
$$

LMZ867-665-643>646-130500-
LAKE MICHIGAN

STATION/POSITION TIME  TEMP    WIND        PRES    WAVE
                       AIR SEA DIR/SP/G            HT/PER
                 (UTC) (F)     (DEG/KT/KT) (MB)    (FT/S)
N MID LAKE BUOY  0350   58 58  170/  8/ 12 1008.4F   1/ 4
NORTHPORT PIER   0300   67     290/  6/  8 1009.1F
SISTER BAY       0325   67        CALM       N/A
ALGOMA LAKESHORE 0305             CALM       N/A
KEWAUNEE LAKESHO 0400   56     180/  9/ 10 1010.3F
SHEBOYGAN LAKESH 0400   68      10/  7/  8 1011.0F
PORT WASHINGTON  0300   64     210/  5/ 11 1011.5R
MILWAUKEE LAKESH 0400   69     270/  6/  7   N/A
S MID LAKE BUOY  0350   66 60  180/ 17/ 21 1008.6F   2/ 4
KENOSHA   LAKESH 0400   71     300/ 12/ 25   N/A
$$

TC  - TEMPERATURE IN CELSIUS
VSB - VISIBILITY IN STATUTE MILES
WCI - WIND CHILL INDEX
HX  - HEAT INDEX



USA.gov is the U.S. government's official web portal to all federal, state and local government web resources and services.